Groton, CT

5:20 PM EDT on May 26, 2017 (GMT -0400)
Groton-New London

Weather History for KGON - November, 2014

Change the Weather History Date:

Thursday, November 13, 2014

  Actual Average Record
Temperature  
Mean Temperature 41 °F -  
Max Temperature 48 °F 51 °F 68 °F (2010)
Min Temperature 34 °F 34 °F 21 °F (2001)
Degree Days  
Heating Degree Days 24    
Moisture  
Dew Point 30 °F    
Average Humidity 65    
Maximum Humidity 97    
Minimum Humidity 41    
Precipitation  
Precipitation 0.00 in - - ()
Sea Level Pressure  
Sea Level Pressure 30.02 in    
Wind  
Wind Speed 10 mph (NW)    
Max Wind Speed 17 mph    
Max Gust Speed -    
Visibility 8 miles    
Events Rain    
Averages and records for this station are not official NWS values.
T = Trace of Precipitation, MM = Missing Value Source: NWS Daily Summary

Daily Weather History Graph

Daily Weather History Graph

Search for Another Location

Airport or City:

Trip Planner

Search our weather history database for the weather conditions in past years. The results will help you decide how hot, cold, wet, or windy it might be!

Date:

Astronomy

Nov. 13, 2014 Rise Set
Actual Time 6:33 AM EST 4:30 PM EST
Civil Twilight 6:04 AM EST 4:59 PM EST
Nautical Twilight 5:31 AM EST 5:33 PM EST
Astronomical Twilight 4:58 AM EST 6:05 PM EST
Moon 10:45 PM EST (11/13) 11:51 AM EST (11/13)
Length of Visible Light 10h 55m
Length of Day
9h 56m
Waning Gibbous, 59% of the Moon is Illuminated
Nov 13
Waning Gibbous
Nov 14
Last Quarter
Nov 22
New
Nov 29
First Quarter
Dec 6
Full

Hourly Weather History & Observations

Time (EST) Temp. Windchill Dew Point Humidity Pressure Visibility Wind Dir Wind Speed Gust Speed Precip Events Conditions
12:56 AM 41.0 °F 33.5 °F 28.9 °F 62% 30.03 in 9.0 mi North 13.8 mph - N/A   Clear
1:56 AM 39.9 °F 31.1 °F 28.0 °F 63% 30.03 in 9.0 mi NNW 17.3 mph - N/A   Clear
2:56 AM 39.0 °F 30.6 °F 27.0 °F 62% 30.04 in 9.0 mi North 15.0 mph - N/A   Clear
3:56 AM 37.9 °F 28.9 °F 27.0 °F 65% 30.05 in 9.0 mi NNW 16.1 mph - N/A   Clear
4:56 AM 37.0 °F 33.3 °F 27.0 °F 67% 30.07 in 9.0 mi NW 4.6 mph - N/A   Clear
5:56 AM 35.1 °F 30.1 °F 26.1 °F 70% 30.08 in 9.0 mi North 5.8 mph - N/A   Clear
6:56 AM 34.0 °F 28.0 °F 26.1 °F 73% 30.09 in 7.0 mi North 6.9 mph - N/A   Clear
7:56 AM 39.0 °F 35.7 °F 26.1 °F 60% 30.09 in 7.0 mi North 4.6 mph - N/A   Clear
8:56 AM 43.0 °F 37.2 °F 26.1 °F 51% 30.09 in 8.0 mi North 10.4 mph - N/A   Clear
9:56 AM 46.0 °F 41.9 °F 27.0 °F 47% 30.08 in 8.0 mi North 8.1 mph - N/A   Clear
10:56 AM 46.9 °F - 26.1 °F 44% 30.07 in 8.0 mi NNW 5.8 mph - N/A   Clear
11:56 AM 48.9 °F - 26.1 °F 41% 30.04 in 8.0 mi North 4.6 mph - N/A   Clear
12:56 PM 48.9 °F - 30.9 °F 50% 30.02 in 8.0 mi SW 8.1 mph - N/A   Scattered Clouds
1:56 PM 46.9 °F - 30.9 °F 54% 30.01 in 8.0 mi SW 6.9 mph - N/A   Overcast
2:56 PM 46.9 °F - 32.0 °F 56% 29.99 in 8.0 mi SSW 6.9 mph - N/A   Mostly Cloudy
3:56 PM 46.9 °F - 33.1 °F 59% 29.99 in 8.0 mi SW 6.9 mph - N/A   Overcast
4:56 PM 46.9 °F - 33.1 °F 59% 29.98 in 9.0 mi West 6.9 mph - N/A   Overcast
5:56 PM 46.9 °F - 33.1 °F 59% 29.99 in 9.0 mi WNW 5.8 mph - N/A   Overcast
6:56 PM 45.0 °F 41.8 °F 34.0 °F 65% 29.99 in 9.0 mi WNW 5.8 mph - 0.00 in Rain Light Rain
7:56 PM 45.0 °F 41.2 °F 32.0 °F 60% 29.99 in 9.0 mi West 6.9 mph - 0.00 in   Overcast
8:56 PM 45.0 °F 41.2 °F 32.0 °F 60% 29.98 in 8.0 mi WNW 6.9 mph - N/A   Overcast
9:56 PM 43.0 °F 37.7 °F 33.1 °F 68% 29.96 in 9.0 mi NNW 9.2 mph - 0.00 in   Overcast
10:56 PM 39.0 °F 31.4 °F 35.1 °F 86% 29.96 in 6.0 mi NNW 12.7 mph - 0.00 in Rain Light Rain
11:32 PM 37.0 °F 29.8 °F 35.1 °F 93% 29.96 in 4.0 mi North 10.4 mph - 0.00 in Rain Light Rain
11:40 PM 36.0 °F 29.6 °F 35.1 °F 97% 29.96 in 4.0 mi NNW 8.1 mph - 0.00 in Rain Light Rain
11:46 PM 36.0 °F 29.6 °F 35.1 °F 97% 29.95 in 5.0 mi North 8.1 mph - 0.00 in Rain Light Rain
11:56 PM 36.0 °F 28.5 °F 35.1 °F 97% 29.95 in 5.0 mi North 10.4 mph - 0.00 in Rain Light Rain